OpenBCM V1.08-5-g2f4a (Linux)

Packet Radio Mailbox

IZ3LSV

[San Dona' di P. JN]

 Login: GUEST





  
LU1HVK > KEP      10.01.20 16:31l 243 Lines 12025 Bytes #999 (0) @ WW
BID : 38540_LU1HVK
Read: GUEST
Subj: TLE 13 10
Path: IZ3LSV<IW0QNL<JH4XSY<N3HYM<IK5FKA<LU9HGS<LU1HVK
Sent: 200110/1529Z 38540@LU1HVK.2594.CBA.ARG.SA LinBPQ6.0.19

                         _    _   _ _ _   ___     ___  __
                        | |  | | | / | | | \ \   / / |/ /
                        | |  | | | | | |_| |\ \ / /| ' /
                        | |__| |_| | |  _  | \ V / | . \
                        |_____\___/|_|_| |_|  \_/  |_|\_\

     BBS/NODO - CORDOBA (LEONES-FF87UH) - LU1HVK-4 NODO - LU1HVK-3 APRS

+----------------------------------------------------------------------------+
OSCAR 7
1  7530U 74089B   19285.89578311 -.00000034 +00000-0 +68045-4 0  9995
2  7530 101.7598 252.4252 0012363 121.5064 294.3091 12.53640359054841
OSCAR 11 (UoSAT 2)
1 14781U 84021B   19285.67733817  .00000058  00000-0  13220-4 0  9998
2 14781  97.6053 304.8727 0007188 304.7442  55.3096 14.83111670915951
OSCAR 19 (LUSAT)
1 20442U 90005G   19285.79133398 +.00000004 +00000-0 +17904-4 0  9993
2 20442 098.6581 227.6442 0011981 162.0584 198.1025 14.32934875552941
EYESAT A
1 22825U 93061C   19284.52484314 -.00000007  00000-0  15230-4 0  9996
2 22825  98.9129 275.8327 0008957  30.9110 329.2597 14.30068169358366
ITAMSAT
1 22826U 93061D   19285.89874022 -.00000007 +00000-0 +15345-4 0  9994
2 22826 098.9069 277.2162 0009221 015.9763 344.1708 14.30402420358514
RADIO ROSTO
1 23439U 94085A   19285.96662658 -.00000029 +00000-0 +37926-3 0  9992
2 23439 064.8148 288.0927 0145233 090.5574 271.1992 11.27568337021005
JAS 2
1 24278U 96046B   19285.86359477 -.00000023  00000-0  16169-4 0  9995
2 24278  98.5554  63.6034 0349383 298.9280  57.7237 13.53093688143512
TECHSAT 1B
1 25397U 98043D   19285.86395433 -.00000021 +00000-0 +99516-5 0  9995
2 25397 098.6972 224.6410 0002332 072.3354 287.8078 14.23672022104185
ISS (ZARYA)
1 25544U 98067A   19286.00171490  .00001418  00000-0  32666-4 0  9999
2 25544  51.6436 137.0553 0007386 142.3451   3.3200 15.50195983193530
PCSAT
1 26931U 01043C   19285.83765334 -.00000044 +00000-0 +14776-4 0  9991
2 26931 067.0515 063.9635 0007459 268.5044 091.5203 14.30554953941512
SAUDISAT 1C
1 27607U 02058C   19285.77953476 -.00000003  00000-0  20416-4 0  9991
2 27607  64.5558  54.6683 0075216 233.9396 125.4724 14.75578191904168
CUTE-1
1 27844U 03031E   19285.87756479  .00000059  00000-0  46340-4 0  9995
2 27844  98.6854 292.3594 0010777  58.5161 301.7068 14.22198938844805
CUBESAT XI 4
1 27848U 03031J   19285.48061658 +.00000045 +00000-0 +40191-4 0  9997
2 27848 098.6929 292.4920 0010799 070.2309 290.0032 14.21791393844562
MOZHAYETS 4
1 27939U 03042A   19285.94823530 +.00000002 +00000-0 +88993-5 0  9992
2 27939 098.0571 059.6108 0014078 063.2558 297.0089 14.66808559857580
CUBESAT XI 5
1 28895U 05043F   19285.92848109 +.00000101 +00000-0 +28240-4 0  9992
2 28895 097.9763 064.7894 0016407 349.3559 010.7294 14.63698485744258
CUTE-1.7+APD II
1 32785U 08021C   19285.79332356 +.00000207 +00000-0 +27935-4 0  9998
2 32785 097.5561 280.0692 0011751 234.2977 125.7147 14.88356026620880
DELFI C3
1 32789U 08021G   19285.87856048 +.00001460 +00000-0 +10093-3 0  9998
2 32789 097.4529 331.9767 0013728 089.2189 271.0611 15.07166734624360
SEEDS
1 32791U 08021J   19285.75006597 +.00000398 +00000-0 +45666-4 0  9998
2 32791 097.5317 286.1061 0012578 205.5211 154.5388 14.90884729621329
YUBELEINY
1 32953U 08025A   19285.86324619  .00000020  00000-0  75656-4 0  9996
2 32953  82.4998  72.5085 0018878 234.7963 125.1357 12.43091640516744
PRISM (HITOMI)
1 33493U 09002B   19285.92264163 +.00000304 +00000-0 +32134-4 0  9995
2 33493 098.1214 211.2868 0015388 154.4558 205.7426 14.96754804582520
KKS-1 (KISEKI)
1 33499U 09002H   19285.84416661 +.00000109 +00000-0 +24032-4 0  9995
2 33499 098.3412 128.2178 0008802 189.2826 170.8221 14.75468613575924
SWISSCUBE
1 35932U 09051B   19285.91841841 +.00000126 +00000-0 +39617-4 0  9997
2 35932 098.5986 095.3757 0007927 161.6269 198.5215 14.56317247533654
BEESAT
1 35933U 09051C   19285.43351222  .00000111  00000-0  36046-4 0  9991
2 35933  98.6003  96.6823 0005879 173.2763 186.8514 14.56402150533735
ITUPSAT 1
1 35935U 09051E   19285.90179124 +.00000061 +00000-0 +25295-4 0  9992
2 35935 098.6113 097.3940 0008217 172.5351 187.5969 14.55557579533514
XIWANG-1 (HOPE-1)
1 36122U 09072B   19285.79483520 -.00000016 +00000-0 +69023-4 0  9997
2 36122 100.0791 282.7382 0008227 075.4542 284.7484 13.16351735472153
TISAT 1
1 36799U 10035E   19285.90639337 +.00000371 +00000-0 +43422-4 0  9998
2 36799 098.1707 082.0248 0013458 067.6562 292.6080 14.91174156501883
JUGNU
1 37839U 11058B   19285.59578331  .00000312  00000-0  24390-4 0  9999
2 37839  19.9628 351.9172 0018813 164.1699 351.1899 14.12661040413663
SRMSAT
1 37841U 11058D   19285.73913896 +.00000294 +00000-0 +16268-4 0  9991
2 37841 019.9730 050.2203 0011984 031.7393 116.1523 14.10640862413004
M-CUBED/EXP-1 PRIME
1 37855U 11061F   19285.90201660 +.00001229 +00000-0 +68777-4 0  9999
2 37855 101.7159 241.1609 0173005 092.2078 269.8954 15.05634341433792
HORYU 2
1 38340U 12025D   19285.92615394 +.00000165 +00000-0 +32004-4 0  9997
2 38340 098.3180 327.9378 0012739 112.2367 248.0194 14.75758339387897
STRAND 1
1 39090U 13009E   19285.87322936 +.00000012 +00000-0 +19544-4 0  9999
2 39090 098.4769 129.8277 0008295 308.9670 051.0776 14.35100042347032
SOMP
1 39134U 13015E   19285.66430928 +.00001285 +00000-0 +67234-4 0  9995
2 39134 064.8647 004.6497 0036992 283.9347 075.7668 15.20387629357841
BEESAT 3
1 39135U 13015F   19285.66158779 +.00000926 +00000-0 +55072-4 0  9995
2 39135 064.8697 024.6021 0036348 292.3982 067.3295 15.17647862357450
BEESAT 2
1 39136U 13015G   19285.87464309 +.00000720 +00000-0 +45946-4 0  9999
2 39136 064.8704 028.0721 0028102 297.6521 062.1752 15.17065388357404
CUBEBUG 1
1 39153U 13018D   19285.80149116  .00000195  00000-0  32341-4 0  9991
2 39153  97.9812  23.2913 0017060 177.8024 182.3266 14.80605858348998
ZACUBE
1 39417U 13066B   19285.83604368 +.00000208 +00000-0 +32458-4 0  9999
2 39417 097.5627 292.8109 0059295 014.6696 345.6221 14.81159534318236
TRITON 1
1 39427U 13066M   19285.88560768 +.00000159 +00000-0 +33131-4 0  9994
2 39427 097.6908 256.1699 0114337 152.8167 207.9088 14.67888487315197
GOMX 1
1 39430U 13066Q   19285.91459862 +.00000134 +00000-0 +33713-4 0  9993
2 39430 097.7590 234.8820 0149887 247.7799 110.7456 14.59294975313553
HUMSAT D
1 39433U 13066T   19285.68700302  .00000368  00000-0  41190-4 0  9995
2 39433  97.5419 328.3820 0029218 273.6820  86.1059 14.92268627320376
CUBEBUG 2
1 39440U 13066AA  19285.88908199 +.00000194 +00000-0 +33725-4 0  9991
2 39440 097.6098 277.5084 0081613 067.9018 293.0833 14.75896426315913
FUNCUBE 1
1 39444U 13066AE  19285.90720974 +.00000244 +00000-0 +36248-4 0  9990
2 39444 097.5598 294.9329 0058230 007.8481 352.3630 14.81987637316559
UWE-3
1 39446U 13066AG  19285.89719168 +.00000197 +00000-0 +32646-4 0  9998
2 39446 097.5855 284.6525 0071026 041.7935 318.8670 14.78431818315843
SPROUT
1 39770U 14029E   19285.87949795 +.00000729 +00000-0 +86602-4 0  9999
2 39770 097.8887 028.4538 0009999 067.7375 292.4895 14.87455063292102
UNISAT 6
1 40012U 14033C   19285.68972037 +.00000185 +00000-0 +34675-4 0  9998
2 40012 097.7400 147.2081 0059735 083.6329 277.1678 14.74016464285773
DUCHIFAT 1
1 40021U 14033M   19285.73849041 +.00000504 +00000-0 +57172-4 0  9994
2 40021 097.9246 210.7186 0013814 032.5599 327.6467 14.90701956288837
QB50P1
1 40025U 14033R   19285.82517083 +.00000215 +00000-0 +28867-4 0  9994
2 40025 097.9038 205.3086 0013469 042.2382 317.9870 14.88996184288097
CHUBUSAT 1
1 40300U 14070C   19285.83045003  .00000510  00000-0  25123-4 0  9990
2 40300  97.3177 357.0249 0020495  10.9409 126.2895 15.22199778273686
NUDT-PHONESAT
1 40900U 15049B   19285.87987565 +.00001935 +00000-0 +84813-4 0  9998
2 40900 097.4377 294.0978 0013923 131.8156 346.6206 15.23127397225347
ZDPS 2A
1 40901U 15049C   19285.96149573 +.00000596 +00000-0 +32709-4 0  9997
2 40901 097.4629 290.1249 0014057 152.6246 237.7151 15.17867152224875
ZDPS 2B
1 40902U 15049D   19285.93860337 +.00001087 +00000-0 +57095-4 0  9994
2 40902 097.4581 287.5041 0014219 149.5921 269.3625 15.17733085224849
XW-2A
1 40903U 15049E   19285.75157869  .00001902  00000-0  46231-4 0  9990
2 40903  97.3264 329.1132 0015168  85.4407  52.0337 15.42178860228137
KAITUO 1A
1 40904U 15049F   19285.94559229 +.00000571 +00000-0 +33614-4 0  9990
2 40904 097.4714 285.9915 0015030 159.0284 280.6090 15.15458326224607
OBJECT G
1 40905U 15049G   19285.91197753 +.00000345 +00000-0 +22351-4 0  9993
2 40905 097.4765 283.3900 0016100 154.9203 292.5027 15.14360687224461
XW-2C
1 40906U 15049H   19285.91886206 +.00000669 +00000-0 +38437-4 0  9993
2 40906 097.4718 286.1016 0015281 150.5441 270.3086 15.15779015224609
XW-2D
1 40907U 15049J   19285.81900355  .00000480  00000-0  28398-4 0  9991
2 40907  97.4700 285.6832 0014812 148.2597 289.9859 15.15973655224606
LILACSAT 2
1 40908U 15049K   19285.86812595 +.00000559 +00000-0 +34426-4 0  9991
2 40908 097.4836 284.4291 0016260 155.7638 323.3137 15.13865958224382
XW-2F
1 40910U 15049M   19285.86876023  .00001043  00000-0  55311-4 0  9995
2 40910  97.4661 287.9086 0015686 140.6073 304.2414 15.17461710224634
XW-2B
1 40911U 15049N   19285.79961866  .00000763  00000-0  43227-4 0  9999
2 40911  97.4716 286.3335 0014744 148.8722 336.0632 15.15904472224495
KAITUO 1B
1 40912U 15049P   19285.92070818 +.00001005 +00000-0 +50018-4 0  9999
2 40912 097.4515 291.7855 0016138 123.0844 325.1023 15.19792684224968
TIANWANG 1C (TW-1C)
1 40926U 15051B   19285.94190137 +.00014447 +00000-0 +19445-3 0  9998
2 40926 097.1236 332.0418 0005793 307.2413 175.8110 15.57942061228247
TIANWANG 1B (TW-1B)
1 40927U 15051C   19285.82384875  .00013025  00000-0  18712-3 0  9997
2 40927  97.1266 331.0568 0006258 322.7018 125.8440 15.56202317228069
